Terug naar catalogus

CZ-7A R/B

LostGTO
NORAD 100173·ROCKET BODY·🇨🇳 China

Gelanceerd Jul 29, 2026 vanaf Wenchang Space Launch Site

Loading…

TLE

VerouderdSource: Space-Track

Epoch: Aug 9, 2026, 21:55 UTC

1 A0173U 26172B   26221.91326750  .00147862  94668-6  24260-2 0  9998
2 A0173  15.4520 140.5842 7211714 188.0097 146.3723  2.42008571   296

Volg CZ-7A R/B in realtime met AllMySat

Download on the App Store